Flag for U.S.A. Weather past 2 weeks in Amarillo, Texas, U.S.A.

Now
66 °F

Clear.


Feels Like: 66 °F
Forecast: 67 / 85 °F
Wind: 8 mph from North

Location: Amarillo International Airport

Current Time: Jul 29, 2015 at 5:17:02 AM

Latest Report: Jul 29, 2015 at 4:53 AM


Visibility: 10 mi

Pressure: 29.97 "Hg (26.30 "Hg at 1117m altitude)

Humidity: 93%

Dew point: 64 °F

Location of AmarilloLocation

Historic Weather in Amarillo — Graph

°F

Amarillo temperature yesterday

Maximum temperature yesterday: 93 °F (at 2:53 PM)
Minimum temperature yesterday: 68 °F (at 10:53 PM)
Average temperature yesterday: 81 °F

Past Weeks' High & Low Weather Summary

 TemperatureHumidityPressure
High95 °F (Jul 14, 5:53 PM)94% (Jul 21, 4:53 AM)30.17 "Hg (Jul 21, 4:53 AM)
Low65 °F (Jul 21, 4:53 AM)28% (Jul 15, 4:53 PM)29.71 "Hg (Jul 14, 6:53 PM)
Average81 °F57%29.84 "Hg
* Reported Jul 14 3:53 AM — Jul 29 3:53 AM, Amarillo, Weather by CustomWeather, © 2015

Note: Actual official high and low records may vary slightly from our data, if they occured in-between our weather recording intervals... More about our weather records

Advertising

Amarillo weather history for previous 24 hours

 ConditionsComfort  
Time TempWeatherWind HumidityBarometerVisibility
3:53 AM
Wed, Jul 29
66 °FClear.8 mph90%29.95 "Hg10 mi
2:53 AM67 °FClear.8 mph87%29.95 "Hg10 mi
1:53 AM68 °FClear.8 mph87%29.96 "Hg10 mi
12:53 AM68 °FClear.14 mph87%30.01 "Hg10 mi
11:53 PM
Tue, Jul 28
68 °FThundershowers. Partly cloudy.15 mph90%30.05 "Hg10 mi
11:04 PM68 °FThunderstorms. Mostly cloudy.15 mph90%30.17 "Hg10 mi
10:53 PM68 °FThundershowers. Mostly cloudy.21 mph90%29.98 "Hg10 mi
9:53 PM75 °FThunderstorms. Overcast.10 mph71%29.89 "Hg2 mi
9:01 PM76 °FThunderstorms. Overcast.20 mph56%30.06 "Hg10 mi
7:53 PM89 °FSunny.9 mph39%29.81 "Hg10 mi
6:53 PM92 °FSunny.12 mph37%29.78 "Hg10 mi
5:53 PM92 °FMostly cloudy.9 mph37%29.79 "Hg10 mi
4:53 PM92 °FScattered clouds.8 mph37%29.80 "Hg10 mi
3:53 PM93 °FSunny.8 mph38%29.82 "Hg10 mi
2:53 PM93 °FSunny.8 mph40%29.83 "Hg10 mi
1:53 PM91 °FSunny.9 mph44%29.84 "Hg10 mi
12:53 PM90 °FSunny.8 mph45%29.83 "Hg10 mi
11:53 AM88 °FSunny.15 mph45%29.83 "Hg10 mi
10:53 AM86 °FSunny.15 mph46%29.83 "Hg10 mi
9:53 AM82 °FSunny.12 mph53%29.84 "Hg10 mi
8:53 AM77 °FSunny.9 mph62%29.84 "Hg10 mi
7:53 AM72 °FSunny.8 mph71%29.82 "Hg10 mi
6:53 AM72 °FClear.14 mph68%29.80 "Hg10 mi
5:53 AM73 °FClear.15 mph69%29.78 "Hg10 mi
Weather by CustomWeather, © 2015

See weather overviewHow to use our weather pages